Terminal Aerodrome Forecast
Issued by NWS Portland, OR

Home | Current Version | Previous Version | Text Only | Print | Product List | Glossary On
Versions: 1 2 3 4 5 6 7 8 9 10 11 12 13 14 15 16 17 18 19 20 21 22 23 24 25 26 27 28 29 30 31 32
000
FTUS46 KPQR 281909 AAA
TAFTTD
TAF AMD
KTTD 281909Z 2819/2918 30003KT 2SM BR OVC002
     FM282030 VRB03KT 6SM BR SCT002 BKN010 OVC050
     FM282130 09005KT P6SM SCT010 BKN050
     FM290300 09009KT P6SM SCT050 BKN100
     FM290900 09012G20KT P6SM BKN100=

USA.gov is the U.S. government's official web portal to all federal, state and local government web resources and services.